sat.trackr.live / text

‹ back to catalog

PAKTES 1A

NORAD 43529 · 2018-056A

PAYLOAD ACTIVE UNKNOWN

§ Identity

Operator
Country
PAKI
Launch date
2018-07-09
Launch site
JSC
Launch vehicle
Mass (kg)
RCS (m²)

External: N2YO · Heavens-Above · Gunter

§ Orbital elements

Epoch: 2026-09-20T04:13:00.580224Z

Period
96.04 min
Inclination
98.1379°
Eccentricity
0.0021808
Mean motion
14.99421680 rev/d
Perigee alt
553.5 km
Apogee alt
583.8 km
Semi-major
6,946.8 km
B*
8.7611e-5
RAAN
63.8035°
Arg perigee
159.3599°
Mean anomaly
200.8508°
Rev number
44,615

§ Raw data

PAKTES 1A1 43529U 18056A   26263.17570116  .00001012  00000+0  87611-4 0  99902 43529  98.1379  63.8035 0021808 159.3599 200.8508 14.99421680446154

JSON: /api/v1/satellites/43529 · /tle

For live sub-satellite position, see the globe view (requires WebGL).

§ Visibility from observer

Set your observer location to see the next 7 days of passes ≥ 10°. The values pass through the URL so the page stays shareable.

No JS? Fill the form by hand. The geolocation button needs JavaScript.

§ Radio — SatNOGS DB

ModeDescriptionDownlinkUplink
FM S Band Center 2.246 GHz
FM S-band telemetry 2.250 GHz
FM Telemetry 401.415 MHz

3 transmitters · refreshed weekly from db.satnogs.org